W1CLK Weather Reports


time (UTC)temp
C
wind
direction
speed
KPH
gust
KPH
rain 1hr
cm
rain 24hr
cm
rain mn
cm
humidity
%
barometer
mb
20260510130845 16 244 3.2 6.4 0.00 0.00 0.00 90 1014.0
20260510130344 16 279 0.0 3.2 0.00 0.00 0.00 90 1013.0
20260510125844 16 262 3.2 6.4 0.00 0.00 0.00 90 1013.0
20260510125344 15 111 0.0 3.2 0.00 0.00 0.00 92 1013.0
20260510124844 15 97 1.6 4.8 0.00 0.00 0.00 95 1013.0
20260510124344 15 118 0.0 1.6 0.00 0.00 0.00 97 1013.0
20260510123844 14 296 3.2 3.2 0.00 0.00 0.00 100 1013.0
20260510123346 13 7 0.0 1.6 0.00 0.00 0.00 99 1013.0
20260510122845 13 0 0.0 0.0 0.00 0.00 0.00 99 1013.0
20260510122344 12 86 0.0 3.2 0.00 0.00 0.00 99 1013.0
20260510121844 12 251 1.6 4.8 0.00 0.00 0.00 99 1013.0
20260510121344 12 140 1.6 4.8 0.00 0.00 0.00 99 1013.0
20260510120844 12 93 0.0 3.2 0.00 0.00 0.00 99 1013.0
20260510120344 11 137 1.6 1.6 0.00 0.00 0.00 99 1013.0
20260510115844 11 250 1.6 6.4 0.00 0.00 0.00 99 1013.0
20260510115346 11 248 3.2 6.4 0.00 0.00 0.00 99 1013.0
20260510114845 11 245 1.6 4.8 0.00 0.00 0.00 99 1013.0
20260510114345 11 244 0.0 1.6 0.00 0.00 0.00 99 1013.0
20260510113845 11 303 0.0 1.6 0.00 0.00 0.00 99 1013.0
20260510113345 10 74 0.0 1.6 0.00 0.00 0.00 99 1013.0
20260510112844 10 0 0.0 0.0 0.00 0.00 0.00 99 1012.0
20260510112344 10 0 0.0 0.0 0.00 0.00 0.00 99 1012.0
20260510111844 10 0 0.0 0.0 0.00 0.00 0.00 99 1013.0
20260510111344 10 90 0.0 1.6 0.00 0.00 0.00 99 1012.0
20260510110844 10 0 0.0 0.0 0.00 0.00 0.00 99 1012.0
20260510110344 9 0 0.0 0.0 0.00 0.00 0.00 99 1012.0
20260510105844 9 0 0.0 0.0 0.00 0.00 0.00 99 1012.0
20260510105344 9 82 3.2 3.2 0.00 0.00 0.00 99 1012.0
20260510104844 9 233 3.2 3.2 0.00 0.00 0.00 99 1013.0
20260510104344 9 0 0.0 0.0 0.00 0.00 0.00 99 1012.0
20260510103844 8 0 0.0 0.0 0.00 0.00 0.00 99 1012.0
20260510103344 8 118 0.0 0.0 0.00 0.00 0.00 99 1012.0
20260510102845 8 187 0.0 0.0 0.00 0.00 0.00 99 1012.0
20260510102344 8 286 0.0 3.2 0.00 0.00 0.00 99 1012.0
20260510101844 8 50 0.0 0.0 0.00 0.00 0.00 99 1012.0
20260510101344 9 0 0.0 0.0 0.00 0.00 0.00 99 1012.0
20260510100848 9 0 0.0 0.0 0.00 0.00 0.00 99 1012.0
20260510100344 9 0 0.0 0.0 0.00 0.00 0.00 99 1012.0
20260510095844 9 0 0.0 0.0 0.00 0.00 0.00 99 1012.0
20260510095344 9 0 0.0 0.0 0.00 0.00 0.00 99 1012.0
20260510094844 9 0 0.0 0.0 0.00 0.00 0.00 99 1012.0
20260510094344 9 86 0.0 0.0 0.00 0.00 0.00 99 1012.0
20260510093844 9 109 0.0 0.0 0.00 0.00 0.00 99 1012.0
20260510093346 9 0 0.0 0.0 0.00 0.00 0.00 99 1012.0
20260510092845 9 0 0.0 0.0 0.00 0.00 0.00 99 1012.0
20260510092344 9 0 0.0 0.0 0.00 0.00 0.00 99 1012.0
20260510091844 9 0 0.0 0.0 0.00 0.00 0.00 99 1012.0
20260510091344 9 16 0.0 0.0 0.00 0.00 0.00 99 1012.0
20260510090844 9 0 0.0 0.0 0.00 0.00 0.00 99 1012.0
20260510090346 9 0 0.0 0.0 0.00 0.00 0.00 99 1012.0
20260510085844 9 108 0.0 0.0 0.00 0.00 0.00 99 1011.0
20260510085344 9 108 1.6 3.2 0.00 0.00 0.00 99 1011.0
20260510084844 9 99 1.6 1.6 0.00 0.00 0.00 99 1011.0
20260510084344 9 61 3.2 4.8 0.00 0.00 0.00 99 1012.0
20260510083847 9 109 1.6 1.6 0.00 0.00 0.00 99 1012.0
20260510083345 9 136 1.6 3.2 0.00 0.00 0.00 99 1012.0
20260510082844 9 123 0.0 0.0 0.00 0.00 0.00 99 1012.0
20260510082344 9 220 3.2 6.4 0.00 0.00 0.00 99 1012.0
20260510081845 9 14 0.0 0.0 0.00 0.00 0.00 99 1012.0
20260510081344 10 293 6.4 6.4 0.00 0.00 0.00 99 1012.0
20260510080844 10 0 0.0 0.0 0.00 0.00 0.00 99 1012.0
20260510080344 9 133 1.6 4.8 0.00 0.00 0.00 99 1012.0
20260510075844 8 120 3.2 4.8 0.00 0.00 0.00 99 1011.0
20260510075344 8 262 3.2 9.7 0.00 0.00 0.00 99 1012.0
20260510074844 7 125 1.6 3.2 0.00 0.00 0.00 99 1012.0
20260510074344 7 0 0.0 0.0 0.00 0.00 0.00 99 1011.0
20260510073844 7 105 0.0 0.0 0.00 0.00 0.00 99 1011.0
20260510073345 7 0 0.0 0.0 0.00 0.00 0.00 99 1011.0
20260510072845 7 110 3.2 3.2 0.00 0.00 0.00 99 1011.0
20260510072343 8 0 0.0 0.0 0.00 0.00 0.00 99 1011.0
20260510071844 8 166 0.0 0.0 0.00 0.00 0.00 99 1011.0
20260510071344 8 89 0.0 0.0 0.00 0.00 0.00 99 1011.0
20260510070845 8 0 0.0 0.0 0.00 0.00 0.00 99 1011.0
20260510070344 8 264 3.2 4.8 0.00 0.00 0.00 99 1011.0
20260510065844 7 90 0.0 0.0 0.00 0.00 0.00 99 1011.0
20260510065345 7 145 1.6 3.2 0.00 0.00 0.00 99 1011.0
20260510064844 7 86 1.6 1.6 0.00 0.00 0.00 99 1011.0
20260510064344 7 50 0.0 0.0 0.00 0.00 0.00 99 1011.0
20260510063844 7 256 0.0 0.0 0.00 0.00 0.00 99 1011.0
20260510063344 7 229 0.0 1.6 0.00 0.00 0.00 99 1011.0
20260510062844 7 177 0.0 0.0 0.00 0.00 0.00 99 1011.0
20260510062344 7 0 0.0 0.0 0.00 0.00 0.00 99 1011.0
20260510061845 7 114 0.0 3.2 0.00 0.00 0.00 99 1011.0
20260510061346 7 79 0.0 0.0 0.00 0.00 0.00 99 1011.0
20260510060845 7 0 0.0 0.0 0.00 0.00 0.00 99 1011.0
20260510060345 7 0 0.0 0.0 0.00 0.00 0.00 99 1011.0
20260510055844 7 136 0.0 1.6 0.00 0.00 0.00 99 1011.0
20260510055344 7 202 0.0 0.0 0.00 0.00 0.00 99 1011.0
20260510054844 7 224 0.0 1.6 0.00 0.00 0.00 99 1011.0
20260510054344 7 143 0.0 1.6 0.00 0.00 0.00 99 1011.0
20260510053844 7 81 0.0 1.6 0.00 0.00 0.00 99 1011.0
20260510053344 7 0 0.0 0.0 0.00 0.00 0.00 99 1011.0
20260510052845 7 88 1.6 1.6 0.00 0.00 0.00 99 1011.0
20260510052344 7 0 0.0 0.0 0.00 0.00 0.00 99 1011.0
20260510051844 7 0 0.0 0.0 0.00 0.00 0.00 99 1011.0
20260510051344 7 121 0.0 1.6 0.00 0.00 0.00 99 1011.0
20260510050844 7 169 0.0 1.6 0.00 0.00 0.00 99 1011.0
20260510050344 7 150 0.0 1.6 0.00 0.00 0.00 99 1011.0
20260510045844 7 100 0.0 1.6 0.00 0.00 0.00 99 1011.0
20260510045344 7 78 0.0 1.6 0.00 0.00 0.00 99 1011.0
20260510044844 7 111 0.0 1.6 0.00 0.00 0.00 99 1011.0
20260510044345 7 126 0.0 0.0 0.00 0.00 0.00 99 1011.0
20260510043845 7 0 0.0 0.0 0.00 0.00 0.00 99 1011.0
20260510043344 7 122 0.0 1.6 0.00 0.00 0.00 99 1011.0
20260510042844 7 0 0.0 0.0 0.00 0.00 0.00 99 1011.0
20260510042344 7 260 0.0 3.2 0.00 0.00 0.00 99 1011.0
20260510041844 7 286 0.0 3.2 0.00 0.00 0.00 99 1011.0
20260510041344 7 116 0.0 1.6 0.00 0.00 0.00 99 1011.0
20260510040844 8 125 0.0 1.6 0.00 0.00 0.00 99 1011.0
20260510040344 8 0 0.0 0.0 0.00 0.00 0.00 99 1011.0
20260510035845 7 0 0.0 0.0 0.00 0.00 0.51 99 1011.0
20260510035344 8 0 0.0 0.0 0.00 0.00 0.51 99 1011.0
20260510034845 8 102 0.0 1.6 0.00 0.00 0.51 99 1011.0
20260510034344 8 0 0.0 0.0 0.00 0.00 0.51 99 1011.0
20260510033844 8 173 0.0 1.6 0.00 0.00 0.51 99 1011.0
20260510033345 8 130 0.0 1.6 0.00 0.00 0.51 99 1011.0
20260510032845 8 122 0.0 1.6 0.00 0.00 0.51 99 1011.0
20260510032344 8 68 0.0 1.6 0.00 0.00 0.51 99 1011.0
20260510031844 8 0 0.0 0.0 0.00 0.00 0.51 99 1011.0
20260510031344 8 315 0.0 1.6 0.00 0.00 0.51 99 1011.0
20260510030845 8 0 0.0 0.0 0.00 0.00 0.51 99 1011.0
20260510030344 8 0 0.0 0.0 0.00 0.00 0.51 99 1011.0
20260510025844 8 81 0.0 0.0 0.00 0.00 0.51 99 1011.0
20260510025344 8 72 0.0 1.6 0.00 0.00 0.51 99 1011.0
20260510024844 8 115 0.0 1.6 0.00 0.00 0.51 99 1011.0
20260510024344 9 0 0.0 0.0 0.00 0.00 0.51 99 1011.0
20260510023844 9 20 0.0 0.0 0.00 0.00 0.51 99 1011.0
20260510023344 9 0 0.0 0.0 0.00 0.00 0.51 99 1011.0
20260510022844 9 66 0.0 1.6 0.00 0.00 0.51 99 1011.0
20260510022346 9 229 0.0 1.6 0.00 0.00 0.51 99 1011.0
20260510021844 9 96 0.0 1.6 0.00 0.00 0.51 99 1011.0
20260510021344 9 97 0.0 3.2 0.00 0.00 0.51 99 1011.0
20260510020844 9 0 0.0 0.0 0.00 0.00 0.51 99 1011.0
20260510020344 9 85 0.0 1.6 0.00 0.00 0.51 100 1011.0
20260510015844 10 0 0.0 0.0 0.00 0.00 0.51 100 1011.0
20260510015344 10 77 0.0 0.0 0.00 0.00 0.51 99 1011.0
20260510014845 10 96 1.6 3.2 0.00 0.00 0.51 100 1011.0
20260510014345 10 0 0.0 0.0 0.00 0.00 0.51 99 1011.0
20260510013844 10 73 0.0 0.0 0.00 0.00 0.51 100 1011.0
20260510013344 10 99 0.0 1.6 0.00 0.00 0.51 100 1011.0
20260510012845 10 77 0.0 0.0 0.00 0.00 0.51 99 1011.0
20260510012345 10 102 0.0 1.6 0.00 0.00 0.51 99 1011.0
20260510011844 10 99 0.0 1.6 0.00 0.00 0.51 100 1011.0
20260510011345 10 126 0.0 1.6 0.00 0.00 0.51 99 1011.0
20260510010844 11 78 0.0 1.6 0.00 0.00 0.51 99 1010.0
20260510010344 11 75 0.0 1.6 0.00 0.00 0.51 99 1010.0
20260510005844 11 0 0.0 0.0 0.00 0.00 0.51 99 1010.0
20260510005346 11 0 0.0 0.0 0.00 0.00 0.51 98 1010.0
20260510004845 11 0 0.0 0.0 0.00 0.00 0.51 98 1010.0
20260510004344 12 148 0.0 1.6 0.00 0.00 0.51 99 1010.0
20260510003844 12 63 0.0 1.6 0.00 0.00 0.51 99 1010.0
20260510003344 12 0 0.0 0.0 0.00 0.00 0.51 98 1010.0
20260510002844 12 61 3.2 4.8 0.00 0.00 0.51 98 1010.0
20260510002344 12 88 0.0 1.6 0.00 0.00 0.51 98 1010.0
20260510001844 12 0 0.0 0.0 0.00 0.00 0.51 97 1010.0
20260510001344 12 0 0.0 0.0 0.00 0.00 0.51 97 1010.0
20260510000847 13 69 1.6 3.2 0.00 0.00 0.51 97 1010.0
20260510000345 13 101 3.2 4.8 0.00 0.00 0.51 96 1010.0
20260509235844 13 100 1.6 4.8 0.00 0.00 0.51 96 1010.0
20260509235344 13 112 4.8 6.4 0.00 0.00 0.51 96 1010.0
20260509234844 13 106 3.2 8.0 0.00 0.00 0.51 96 1010.0
20260509234345 13 118 3.2 6.4 0.00 0.00 0.51 96 1010.0
20260509233844 13 107 1.6 4.8 0.00 0.00 0.51 95 1010.0
20260509233344 13 61 1.6 3.2 0.00 0.00 0.51 94 1010.0
20260509232844 14 88 1.6 3.2 0.00 0.00 0.51 94 1010.0
20260509232344 14 90 1.6 4.8 0.00 0.00 0.51 93 1010.0
20260509231844 14 126 3.2 6.4 0.00 0.00 0.51 92 1010.0
20260509231344 14 127 1.6 3.2 0.00 0.00 0.51 91 1010.0
20260509230844 14 133 4.8 6.4 0.00 0.00 0.51 91 1010.0
20260509230344 14 120 1.6 4.8 0.00 0.00 0.51 92 1010.0
20260509225844 14 115 1.6 3.2 0.00 0.00 0.51 91 1010.0
20260509225345 15 112 1.6 4.8 0.00 0.00 0.51 91 1010.0
20260509224844 15 110 1.6 3.2 0.00 0.00 0.51 90 1010.0
20260509224347 15 138 3.2 4.8 0.00 0.00 0.51 87 1010.0
20260509223845 15 115 3.2 4.8 0.00 0.00 0.51 85 1010.0
20260509223344 15 76 0.0 1.6 0.00 0.00 0.51 83 1010.0
20260509222844 15 115 3.2 4.8 0.00 0.00 0.51 83 1010.0
20260509222344 15 139 3.2 4.8 0.00 0.00 0.51 83 1010.0
20260509221844 15 125 1.6 6.4 0.00 0.00 0.51 82 1010.0
20260509221345 15 0 0.0 0.0 0.00 0.00 0.51 85 1010.0
20260509220844 15 0 0.0 0.0 0.00 0.00 0.51 87 1010.0
20260509220344 15 113 0.0 1.6 0.00 0.00 0.51 87 1010.0
20260509215844 15 102 0.0 3.2 0.00 0.00 0.51 85 1010.0
20260509215344 15 0 0.0 0.0 0.00 0.00 0.51 85 1010.0
20260509214844 15 25 0.0 0.0 0.00 0.00 0.51 86 1010.0
20260509214344 15 108 1.6 4.8 0.00 0.00 0.51 87 1010.0
20260509213844 15 112 3.2 6.4 0.00 0.00 0.51 84 1010.0
20260509213345 15 115 3.2 4.8 0.00 0.00 0.51 83 1010.0
20260509212844 15 70 0.0 3.2 0.00 0.00 0.51 88 1010.0
20260509212344 15 129 0.0 1.6 0.00 0.00 0.51 88 1010.0
20260509211844 15 0 0.0 0.0 0.00 0.00 0.51 90 1010.0
20260509211344 15 0 0.0 0.0 0.00 0.00 0.51 90 1010.0
20260509210844 15 0 0.0 0.0 0.00 0.00 0.51 89 1010.0
20260509210344 15 0 0.0 0.0 0.00 0.00 0.51 86 1010.0
20260509205844 15 0 0.0 0.0 0.00 0.00 0.51 88 1010.0
20260509205345 15 124 0.0 0.0 0.00 0.00 0.51 88 1010.0
20260509204846 15 0 0.0 0.0 0.00 0.00 0.51 87 1010.0
20260509204344 15 0 0.0 0.0 0.00 0.00 0.51 87 1010.0
20260509203844 15 92 0.0 3.2 0.00 0.00 0.51 86 1010.0
20260509203344 15 48 0.0 4.8 0.00 0.00 0.51 88 1010.0
20260509202848 15 78 1.6 6.4 0.00 0.00 0.51 89 1010.0
20260509202344 15 106 3.2 6.4 0.00 0.00 0.51 88 1010.0
20260509201845 15 174 3.2 4.8 0.00 0.00 0.51 89 1010.0
20260509201343 14 215 0.0 1.6 0.00 0.00 0.51 91 1010.0
20260509200844 14 45 0.0 3.2 0.00 0.00 0.48 93 1010.0
20260509200346 14 75 3.2 6.4 0.00 0.00 0.48 93 1010.0
20260509195844 13 75 0.0 3.2 0.00 0.00 0.48 94 1010.0
20260509195345 13 104 1.6 4.8 0.00 0.00 0.48 93 1010.0
20260509194845 13 86 1.6 3.2 0.00 0.00 0.48 94 1010.0
20260509194344 13 76 0.0 3.2 0.00 0.00 0.48 94 1010.0
20260509193844 13 71 0.0 3.2 0.00 0.00 0.46 95 1010.0
20260509193344 13 0 0.0 0.0 0.00 0.00 0.46 94 1011.0
20260509192844 13 75 3.2 6.4 0.00 0.00 0.46 93 1011.0
20260509192344 13 158 0.0 1.6 0.00 0.00 0.51 94 1011.0
20260509191844 13 89 0.0 4.8 0.00 0.00 0.51 94 1011.0
20260509191344 13 108 0.0 3.2 0.00 0.00 0.51 95 1011.0
20260509190844 13 202 1.6 3.2 0.18 0.00 0.48 95 1011.0
20260509190344 13 112 0.0 0.0 0.36 0.00 0.46 95 1011.0
20260509185844 13 0 0.0 0.0 0.03 0.00 0.43 95 1011.0
20260509185344 13 0 0.0 0.0 0.03 0.00 0.41 95 1011.0
20260509184844 12 80 0.0 3.2 0.03 0.00 0.41 94 1011.0
20260509184344 12 82 0.0 3.2 0.03 0.00 0.41 94 1012.0
20260509183844 12 0 0.0 0.0 0.00 0.00 0.41 95 1012.0
20260509183344 12 316 0.0 0.0 0.03 0.00 0.41 94 1012.0
20260509182846 12 0 0.0 0.0 0.00 0.00 0.41 95 1012.0
20260509182344 12 217 0.0 0.0 0.03 0.00 0.41 94 1012.0
20260509181844 12 0 0.0 0.0 0.00 0.00 0.41 94 1012.0
20260509181344 12 179 0.0 3.2 0.00 0.00 0.41 94 1012.0
20260509180844 12 14 0.0 0.0 0.00 0.00 0.41 93 1012.0
20260509180344 12 274 1.6 4.8 0.00 0.00 0.41 92 1012.0
20260509175845 13 206 1.6 3.2 0.00 0.00 0.41 92 1012.0
20260509175344 13 0 0.0 0.0 0.00 0.00 0.41 94 1012.0
20260509174846 13 57 0.0 1.6 0.00 0.00 0.41 94 1012.0
20260509174344 13 0 0.0 0.0 0.00 0.00 0.41 94 1012.0
20260509173844 13 215 3.2 4.8 0.00 0.00 0.41 94 1012.0
20260509173348 12 264 3.2 6.4 0.00 0.00 0.41 93 1012.0
20260509172845 12 0 0.0 0.0 0.03 0.00 0.41 92 1012.0
20260509172344 13 54 0.0 1.6 0.03 0.00 0.41 93 1012.0
20260509171844 13 203 1.6 4.8 0.10 0.00 0.38 93 1012.0
20260509171345 13 250 3.2 4.8 0.00 0.00 0.38 91 1012.0
20260509170844 13 154 0.0 1.6 0.05 0.00 0.38 92 1012.0
20260509170345 13 144 0.0 1.6 0.03 0.00 0.38 92 1012.0
20260509165844 13 22 0.0 3.2 0.00 0.00 0.38 92 1012.0
20260509165344 13 128 0.0 1.6 0.00 0.00 0.38 92 1012.0
20260509164845 13 0 0.0 0.0 0.00 0.00 0.38 91 1012.0
20260509164344 13 154 1.6 3.2 0.00 0.00 0.38 90 1012.0
20260509163844 13 138 3.2 4.8 0.00 0.00 0.38 88 1012.0
20260509163344 13 121 3.2 6.4 0.00 0.00 0.38 87 1012.0
20260509162844 13 96 1.6 3.2 0.00 0.00 0.38 88 1011.0
20260509162344 13 105 1.6 3.2 0.00 0.00 0.43 89 1011.0
20260509161844 13 3 0.0 1.6 0.00 0.00 0.41 92 1012.0
20260509161344 13 281 4.8 8.0 0.13 0.00 0.41 90 1012.0
20260509160844 13 263 1.6 4.8 0.23 0.00 0.38 90 1012.0
20260509160345 13 100 1.6 3.2 0.30 0.00 0.36 90 1012.0
20260509155845 12 111 3.2 6.4 0.48 0.00 0.33 92 1012.0
20260509155344 12 264 4.8 6.4 0.36 0.00 0.30 93 1012.0
20260509154844 13 266 0.0 3.2 0.18 0.00 0.25 93 1012.0
20260509154344 13 219 3.2 6.4 0.25 0.00 0.25 92 1012.0
20260509153845 13 267 4.8 11.3 0.51 0.00 0.20 92 1013.0
20260509153344 13 260 4.8 8.0 0.46 0.00 0.18 92 1013.0
20260509152845 13 275 8.0 12.9 0.15 0.00 0.15 90 1013.0
20260509152344 13 264 9.7 14.5 0.10 0.00 0.15 89 1013.0
20260509151844 13 268 1.6 6.4 0.15 0.00 0.15 90 1013.0
20260509151345 13 289 9.7 14.5 0.10 0.00 0.13 89 1013.0
20260509150845 13 270 6.4 12.9 0.08 0.00 0.13 90 1013.0
20260509150344 14 226 1.6 3.2 0.15 0.00 0.10 89 1013.0
20260509145400 14 132 1.6 1.6 0.18 0.00 0.10 88 1012.0
20260509144844 14 162 1.6 3.2 0.13 0.00 0.08 87 1012.0
20260509144345 14 201 3.2 4.8 0.08 0.00 0.05 86 1012.0
20260509143844 14 244 4.8 9.7 0.05 0.00 0.05 85 1012.0
20260509143344 14 272 4.8 6.4 0.10 0.00 0.03 84 1012.0
20260509142844 14 246 3.2 11.3 0.10 0.00 0.03 83 1012.0
20260509142345 14 121 1.6 4.8 0.18 0.00 0.03 84 1012.0
20260509141845 14 124 1.6 4.8 0.03 0.00 0.00 85 1012.0
20260509141344 14 200 3.2 6.4 0.03 0.00 0.00 85 1012.0
20260509140844 14 228 3.2 4.8 0.00 0.00 0.00 85 1012.0
20260509140344 14 298 3.2 4.8 0.00 0.00 0.00 84 1012.0
20260509135844 14 148 1.6 3.2 0.00 0.00 0.00 84 1012.0
20260509135344 14 222 0.0 0.0 0.00 0.00 0.00 84 1012.0
20260509134844 13 169 1.6 1.6 0.00 0.00 0.00 85 1012.0
20260509134345 13 136 1.6 3.2 0.00 0.00 0.00 84 1012.0
20260509133844 13 136 4.8 6.4 0.00 0.00 0.00 85 1012.0
20260509133344 13 233 3.2 4.8 0.00 0.00 0.00 85 1012.0
20260509132846 13 200 3.2 9.7 0.00 0.00 0.00 84 1012.0
20260509132344 13 288 1.6 4.8 0.00 0.00 0.00 85 1012.0
20260509131844 13 261 4.8 6.4 0.00 0.00 0.00 85 1012.0
20260509131344 13 290 1.6 3.2 0.00 0.00 0.00 86 1012.0